Location: Boiro
(42.6475°N, 8.8834°W)
Time: 18:54:28
(UTC+01:00)

SR - Visible Passes

Search period start: 06 December 2021 00:00
Search period end: 16 December 2021 00:00
Orbit: 583 x 871 km, 66.7° (Epoch: 05 December)

Date Brightness Start Highest point End Pass type
(mag) Time Alt. Az. Time Alt. Az. Time Alt. Az.
06 Dec ? 07:37:20 10° NNE 07:39:17 13° NE 07:41:15 10° ENE visible
08 Dec ? 07:38:31 10° N 07:41:53 21° NE 07:45:21 10° E visible
09 Dec ? 06:49:54 10° NNE 06:51:36 12° NE 06:53:19 10° ENE visible
10 Dec ? 07:40:16 10° NNW 07:44:20 38° NE 07:48:36 10° ESE visible
11 Dec ? 06:51:20 12° N 06:54:13 20° NE 06:57:35 10° E visible
12 Dec ? 06:03:03 11° NNE 06:03:55 11° NE 06:05:20 10° ENE visible
12 Dec ? 07:42:28 11° NNW 07:46:38 74° ENE 07:51:17 10° SE visible
13 Dec ? 06:54:14 20° N 06:56:41 35° NE 07:00:55 10° ESE visible
14 Dec ? 06:06:02 19° NE 06:06:34 19° NE 06:09:49 10° E visible
14 Dec ? 07:45:28 16° NW 07:48:50 55° WSW 07:53:25 10° SSE visible
15 Dec ? 06:57:20 37° NNW 06:59:00 68° ENE 07:03:39 10° SE visible
